#timestamp,LO_Frequency,Hit,StdDev 
1549378815.6,286046998.3,N
1549378835.5,286046998.7,N
1549378855.3,286047000.5,N
1549378875.1,286047001.0,N
1549378895.9,286046998.3,N
1549378915.7,286046999.0,N
1549378935.6,286046996.5,N
1549378955.4,286046997.6,N
1549378975.2,286046996.7,N
1549378995.1,286046997.1,N
1549378996.0,286046997.1,N
1549379015.8,286046997.3,N
1549379035.6,286046997.0,N
1549379055.5,286046999.6,N
1549379075.3,286046996.6,N
1549379095.2,286046999.6,N
1549379115.9,286046998.6,N
1549379135.7,286046999.5,N
1549379155.6,286046996.6,N
1549379175.4,286046996.7,N
1549379195.2,286046998.4,N
1549379215.1,286047002.5,N
1549379216.0,286047002.5,N
1549379235.8,286047002.3,N
1549379255.7,286047002.8,N
1549379275.5,286047002.7,N
1549379295.3,286047000.0,N
1549379315.2,286047000.6,N
1549379335.0,286047000.7,N
1549379335.9,286047000.7,N
1549379355.7,286047000.6,N
1549379375.6,286047000.7,N
1549379395.4,286047000.9,N
1549379415.3,286047000.6,N
1549379435.1,286046998.3,N
1549379436.0,286046998.3,N
1549379455.8,286046998.2,N
1549379475.7,286046998.7,N
1549379495.5,286046999.5,N
1549379515.3,286046999.6,N
1549379535.2,286046997.1,N
1549379555.0,286046999.5,N
1549379555.9,286046999.5,N
1549379575.8,286046997.0,N
1549379595.6,286046997.2,N
1549379615.4,286046999.2,N
1549379635.3,286046999.6,N
1549379655.1,286046996.5,N
1549379675.8,286046999.4,N
1549379695.7,286047000.1,N
1549379715.5,286047002.8,N
1549379735.4,286047002.3,N
1549379755.2,286047000.6,N
1549379775.0,286046999.7,N
1549379775.9,286046999.7,N
1549379795.8,286047002.6,N
1549379815.6,286047002.0,N
1549379835.4,286046999.8,N
1549379855.3,286047002.3,N
1549379875.1,286047000.4,N
1549379895.9,286047002.6,N
1549379915.7,286047000.4,N
1549379935.5,286047000.4,N
1549379955.4,286046998.3,N
1549379975.2,286046995.6,N
1549379995.0,286046996.2,N
1549379995.9,286046996.2,N
1549380015.8,286046995.9,N
1549380035.6,286046993.4,Y
1549380055.5,286046995.9,P
1549380075.3,286046993.7,P
1549380095.1,286046996.0,N
1549380115.9,286046993.3,Y
1549380135.7,286046997.3,P
1549380155.6,286046995.0,P
1549380175.4,286046997.6,N
1549380195.2,286046995.4,Y
1549380215.1,286046999.2,P
1549380216.0,286046999.2,N
1549380235.8,286046998.8,N
1549380255.7,286046998.1,N
1549380275.5,286046998.5,N
1549380295.3,286047000.5,N
1549380315.2,286047000.0,N
1549380335.0,286047002.7,N
1549380335.9,286047002.7,N
1549380355.7,286047002.2,N
1549380375.6,286047002.6,N
1549380395.4,286047001.9,N
1549380415.3,286046999.8,N
1549380435.1,286047001.6,N
1549380436.0,286047001.6,N
1549380455.8,286047002.6,N
1549380475.7,286047000.1,N
1549380495.5,286047002.7,N
1549380515.4,286047002.2,N
1549380535.2,286047002.8,N
1549380555.0,286047000.0,N
1549380555.9,286047000.0,N
1549380575.8,286047000.9,N
1549380595.6,286047000.4,N
1549380615.4,286047000.7,N
1549380635.3,286047000.2,N
1549380655.1,286047000.4,N
1549380675.9,286047002.8,N
1549380695.7,286046999.8,N
1549380715.5,286047000.0,N
1549380735.4,286047000.3,N
1549380755.2,286047000.1,N
1549380775.1,286047000.6,N
1549380776.0,286047000.6,N
1549380795.8,286047001.1,N
1549380815.6,286047000.6,N
1549380835.5,286046999.7,N
1549380855.3,286047000.7,N
1549380875.1,286047001.0,N
1549380895.9,286047001.2,N
1549380915.7,286047000.8,N
1549380935.6,286047000.6,N
1549380955.4,286047001.2,N
1549380975.2,286047000.8,N
1549380995.1,286047000.0,N
1549380996.0,286047000.0,N
1549381015.8,286047000.4,N
1549381035.7,286046999.3,N
1549381055.5,286047000.3,N
1549381075.3,286047000.6,N
1549381095.2,286046998.2,N
1549381115.9,286046998.2,N
1549381135.7,286046999.9,N
1549381155.6,286047000.3,N
1549381175.4,286047000.3,N
1549381195.2,286047002.3,N
1549381215.1,286047000.4,N
1549381216.0,286047000.4,N
1549381235.8,286047000.5,N
1549381255.7,286047000.4,N
1549381305.5,286046998.2,E
1549381315.5,286047002.7,N
1549381335.3,286047004.4,P
1549381355.1,286047001.6,N
1549381375.9,286047003.7,Y
1549381395.7,286046999.5,P
1549381415.5,286046999.6,N
1549381435.4,286046995.6,N
1549381455.2,286046996.1,N
1549381475.1,286046993.9,N
1549381476.0,286046993.9,N
1549381495.8,286046994.0,N
1549381515.6,286046995.5,N
1549381535.5,286046997.0,N
1549381555.3,286046999.0,N
1549381575.1,286047001.2,N
1549381595.9,286046999.1,N
1549381615.7,286046999.5,N
1549381635.6,286046998.4,N
1549381655.4,286046997.0,N
1549381675.2,286046998.7,N
1549381695.1,286046998.7,N
1549381696.0,286046998.7,N
1549381715.8,286046998.5,N
1549381735.6,286047001.0,N
1549381755.5,286047001.2,N
1549381775.3,286046998.3,N
1549381795.2,286047000.9,N
1549381815.9,286046998.7,N
1549381835.7,286047000.3,N
1549381855.6,286047002.4,N
1549381875.4,286047002.8,N
1549381895.2,286047006.0,N
1549381915.1,286047001.5,N
1549381916.0,286047001.5,N
1549381935.8,286047001.9,N
1549381955.7,286047000.0,N
1549381975.5,286047002.7,N
1549381995.3,286047002.7,N
1549382015.2,286046999.9,N
1549382035.9,286047000.4,N
1549382055.7,286046999.8,N
1549382075.6,286047000.5,N
1549382095.4,286047000.0,N
1549382115.3,286047000.0,N
1549382135.1,286047000.5,N
1549382136.0,286047000.5,N
1549382155.8,286046998.8,N
1549382175.7,286046996.6,N
1549382195.5,286046999.6,N
1549382215.3,286047001.1,N
1549382235.2,286046998.5,N
1549382255.0,286047001.1,N
1549382255.9,286047001.1,N
1549382275.8,286046998.9,N
1549382295.6,286047000.6,N
1549382315.4,286047000.8,N
1549382335.3,286047000.4,N
1549382355.1,286047001.1,N
1549382375.8,286047000.7,N
1549382395.7,286047001.0,N
